Jackson, MN

3:26 AM CST on February 07, 2016 (GMT -0600)
Jackson Municipal

Weather History for KMJQ - January, 2013

Change the Weather History Date:

Friday, January 18, 2013

  Actual Average Record
Temperature  
Mean Temperature 34 °F -  
Max Temperature 42 °F 22 °F 42 °F (2013)
Min Temperature 26 °F 6 °F -9 °F (1997)
Degree Days  
Heating Degree Days 31    
Moisture  
Dew Point 29 °F    
Average Humidity 77    
Maximum Humidity 93    
Minimum Humidity 61    
Precipitation  
Precipitation 0.00 in - - ()
Sea Level Pressure  
Sea Level Pressure 29.89 in    
Wind  
Wind Speed 13 mph (SW)    
Max Wind Speed 18 mph    
Max Gust Speed 25 mph    
Visibility 10 miles    
Events      
Averages and records for this station are not official NWS values.
T = Trace of Precipitation, MM = Missing Value Source: NWS Daily Summary

Daily Weather History Graph

Daily Weather History Graph

Search for Another Location

Airport or City:

Trip Planner

Search our weather history database for the weather conditions in past years. The results will help you decide how hot, cold, wet, or windy it might be!

Date:

Astronomy

Jan. 18, 2013 Rise Set
Actual Time 7:48 AM CST 5:12 PM CST
Civil Twilight 7:16 AM CST 5:44 PM CST
Nautical Twilight 6:41 AM CST 6:19 PM CST
Astronomical Twilight 6:07 AM CST 6:54 PM CST
Moon 11:11 AM CST (1/18) 12:19 AM CST (1/18)
Length of Visible Light 10h 27m
Length of Day
9h 24m
Waxing Crescent, 47% of the Moon is Illuminated
Jan 18
Waxing Crescent
Jan 18
First Quarter
Jan 26
Full
Feb 3
Last Quarter
Feb 10
New

Hourly Weather History & Observations

Time (CST) Temp. Windchill Dew Point Humidity Pressure Visibility Wind Dir Wind Speed Gust Speed Precip Events Conditions
12:13 AM 26.6 °F 15.7 °F 21.2 °F 80% 30.19 in 10.0 mi SSE 12.7 mph - N/A   Clear
12:33 AM 26.6 °F 17.5 °F 21.2 °F 80% 30.18 in 10.0 mi SE 9.2 mph - N/A   Clear
12:53 AM 26.6 °F 16.2 °F 21.2 °F 80% 30.16 in 10.0 mi SSE 11.5 mph - N/A   Clear
1:13 AM 26.6 °F 16.2 °F 21.2 °F 80% 30.15 in 10.0 mi SSE 11.5 mph - N/A   Clear
1:33 AM 26.6 °F 15.2 °F 23.0 °F 86% 30.14 in 10.0 mi SSE 13.8 mph - N/A   Clear
1:53 AM 26.6 °F 16.2 °F 23.0 °F 86% 30.12 in 10.0 mi SSE 11.5 mph 16.1 mph N/A   Clear
2:13 AM 28.4 °F 18.0 °F 23.0 °F 80% 30.10 in 10.0 mi SSE 12.7 mph - N/A   Scattered Clouds
2:33 AM 28.4 °F 17.5 °F 24.8 °F 86% 30.08 in 10.0 mi South 13.8 mph - N/A   Scattered Clouds
2:53 AM 28.4 °F 17.0 °F 24.8 °F 86% 30.07 in 10.0 mi South 15.0 mph - N/A   Clear
3:13 AM 28.4 °F 17.5 °F 24.8 °F 86% 30.06 in 7.0 mi South 13.8 mph - N/A   Clear
3:33 AM 28.4 °F 18.5 °F 26.6 °F 93% 30.05 in 7.0 mi South 11.5 mph 17.3 mph N/A   Clear
3:53 AM 28.4 °F 17.5 °F 26.6 °F 93% 30.03 in 7.0 mi South 13.8 mph 18.4 mph N/A   Clear
4:13 AM 30.2 °F 18.9 °F 26.6 °F 86% 30.01 in 7.0 mi South 16.1 mph 20.7 mph N/A   Clear
4:32 AM 30.2 °F 19.3 °F 26.6 °F 86% 29.99 in 7.0 mi South 15.0 mph 19.6 mph N/A   Clear
4:53 AM 32.0 °F 21.2 °F 28.4 °F 87% 29.98 in 7.0 mi South 16.1 mph 19.6 mph N/A   Clear
5:12 AM 32.0 °F 21.6 °F 28.4 °F 87% 29.96 in 7.0 mi South 15.0 mph 21.9 mph N/A   Clear
5:33 AM 32.0 °F 22.1 °F 28.4 °F 87% 29.95 in 7.0 mi SSW 13.8 mph 19.6 mph N/A   Clear
5:53 AM 32.0 °F 21.6 °F 28.4 °F 87% 29.94 in 10.0 mi SSW 15.0 mph - N/A   Clear
6:12 AM 32.0 °F 21.2 °F 28.4 °F 87% 29.93 in 10.0 mi SSW 16.1 mph - N/A   Clear
6:33 AM 32.0 °F 22.1 °F 28.4 °F 87% 29.92 in 10.0 mi SSW 13.8 mph - N/A   Clear
6:53 AM 33.8 °F 23.5 °F 28.4 °F 81% 29.90 in 10.0 mi SSW 16.1 mph 21.9 mph N/A   Clear
7:12 AM 33.8 °F 23.9 °F 28.4 °F 81% 29.90 in 10.0 mi SSW 15.0 mph - N/A   Clear
7:33 AM 33.8 °F 24.3 °F 28.4 °F 81% 29.89 in 10.0 mi SSW 13.8 mph 19.6 mph N/A   Clear
7:53 AM 33.8 °F 23.5 °F 28.4 °F 81% 29.88 in 10.0 mi SSW 16.1 mph - N/A   Clear
8:12 AM 33.8 °F 24.3 °F 28.4 °F 81% 29.89 in 10.0 mi SSW 13.8 mph - N/A   Clear
8:33 AM 33.8 °F 25.3 °F 28.4 °F 81% 29.88 in 10.0 mi SSW 11.5 mph - N/A   Clear
8:53 AM 33.8 °F 25.3 °F 28.4 °F 81% 29.88 in 10.0 mi SSW 11.5 mph 16.1 mph N/A   Clear
9:12 AM 33.8 °F 24.8 °F 28.4 °F 81% 29.88 in 10.0 mi SW 12.7 mph - N/A   Clear
9:33 AM 33.8 °F 24.3 °F 28.4 °F 81% 29.88 in 10.0 mi SW 13.8 mph - N/A   Clear
9:53 AM 35.6 °F 26.2 °F 28.4 °F 75% 29.87 in 10.0 mi SSW 15.0 mph - N/A   Clear
10:13 AM 35.6 °F 27.1 °F 28.4 °F 75% 29.87 in 10.0 mi SW 12.7 mph 18.4 mph N/A   Clear
10:33 AM 37.4 °F 28.2 °F 28.4 °F 70% 29.86 in 10.0 mi SW 16.1 mph 21.9 mph N/A   Clear
10:53 AM 37.4 °F 27.5 °F 28.4 °F 70% 29.85 in 10.0 mi SW 18.4 mph 23.0 mph N/A   Clear
11:13 AM 37.4 °F 28.2 °F 28.4 °F 70% 29.85 in 10.0 mi SW 16.1 mph 20.7 mph N/A   Clear
11:33 AM 41.0 °F 32.8 °F 30.2 °F 65% 29.84 in 10.0 mi SW 16.1 mph 20.7 mph N/A   Clear
11:53 AM 41.0 °F 32.2 °F 30.2 °F 65% 29.83 in 10.0 mi SW 18.4 mph 21.9 mph N/A   Clear
12:13 PM 41.0 °F 32.5 °F 30.2 °F 65% 29.81 in 10.0 mi SW 17.3 mph 25.3 mph N/A   Clear
12:33 PM 41.0 °F 32.5 °F 30.2 °F 65% 29.80 in 10.0 mi SW 17.3 mph 24.2 mph N/A   Clear
12:53 PM 42.8 °F 36.2 °F 30.2 °F 61% 29.79 in 10.0 mi SW 12.7 mph 19.6 mph N/A   Clear
1:13 PM 42.8 °F 35.4 °F 30.2 °F 61% 29.79 in 10.0 mi WSW 15.0 mph - N/A   Clear
1:33 PM 42.8 °F 35.1 °F 30.2 °F 61% 29.79 in 10.0 mi WSW 16.1 mph - N/A   Clear
1:53 PM 42.8 °F 36.2 °F 30.2 °F 61% 29.79 in 10.0 mi WSW 12.7 mph - N/A   Clear
2:13 PM 42.8 °F 35.1 °F 30.2 °F 61% 29.78 in 10.0 mi WSW 16.1 mph - N/A   Clear
2:33 PM 42.8 °F 35.4 °F 30.2 °F 61% 29.79 in 10.0 mi WSW 15.0 mph - N/A   Clear
2:52 PM 42.8 °F 35.4 °F 32.0 °F 66% 29.79 in 10.0 mi WSW 15.0 mph - N/A   Clear
3:13 PM 42.8 °F 36.6 °F 30.2 °F 61% 29.79 in 10.0 mi West 11.5 mph - N/A   Clear
3:33 PM 42.8 °F 35.4 °F 30.2 °F 61% 29.79 in 10.0 mi WSW 15.0 mph 19.6 mph N/A   Clear
3:53 PM 42.8 °F 35.4 °F 32.0 °F 66% 29.79 in 10.0 mi WSW 15.0 mph 18.4 mph N/A   Clear
4:13 PM 41.0 °F 34.3 °F 32.0 °F 70% 29.80 in 10.0 mi WSW 11.5 mph - N/A   Clear
4:33 PM 41.0 °F 34.3 °F 32.0 °F 70% 29.81 in 10.0 mi WSW 11.5 mph - N/A   Clear
4:53 PM 41.0 °F 34.3 °F 30.2 °F 65% 29.82 in 10.0 mi West 11.5 mph - N/A   Clear
5:13 PM 37.4 °F 29.8 °F 30.2 °F 75% 29.82 in 10.0 mi WSW 11.5 mph - N/A   Clear
5:33 PM 39.2 °F 31.6 °F 30.2 °F 70% 29.82 in 10.0 mi WSW 12.7 mph 17.3 mph N/A   Clear
5:52 PM 37.4 °F 30.3 °F 30.2 °F 75% 29.83 in 10.0 mi WSW 10.4 mph - N/A   Clear
6:13 PM 37.4 °F 31.4 °F 30.2 °F 75% 29.83 in 10.0 mi WSW 8.1 mph - N/A   Clear
6:33 PM 37.4 °F 30.8 °F 30.2 °F 75% 29.83 in 10.0 mi WSW 9.2 mph - N/A   Clear
6:52 PM 37.4 °F 31.4 °F 30.2 °F 75% 29.83 in 10.0 mi WSW 8.1 mph - N/A   Clear
7:13 PM 37.4 °F 30.8 °F 30.2 °F 75% 29.83 in 10.0 mi WSW 9.2 mph - N/A   Clear
7:33 PM 35.6 °F 28.6 °F 30.2 °F 81% 29.83 in 10.0 mi WSW 9.2 mph - N/A   Clear
7:52 PM 35.6 °F 28.6 °F 30.2 °F 81% 29.83 in 10.0 mi WSW 9.2 mph - N/A   Clear
8:13 PM 35.6 °F 29.2 °F 30.2 °F 81% 29.83 in 10.0 mi WSW 8.1 mph - N/A   Clear
8:33 PM 35.6 °F 28.6 °F 30.2 °F 81% 29.83 in 10.0 mi WSW 9.2 mph - N/A   Clear
8:53 PM 35.6 °F 29.9 °F 30.2 °F 81% 29.82 in 10.0 mi SW 6.9 mph - N/A   Clear
9:13 PM 35.6 °F 28.6 °F 30.2 °F 81% 29.82 in 10.0 mi SW 9.2 mph - N/A   Clear
9:33 PM 35.6 °F 30.7 °F 30.2 °F 81% 29.82 in 10.0 mi SW 5.8 mph - N/A   Clear
9:53 PM 35.6 °F 29.9 °F 30.2 °F 81% 29.82 in 10.0 mi SW 6.9 mph - N/A   Clear
10:13 PM 35.6 °F 30.7 °F 30.2 °F 81% 29.82 in 10.0 mi WSW 5.8 mph - N/A   Clear
10:33 PM 35.6 °F 29.9 °F 30.2 °F 81% 29.81 in 10.0 mi SW 6.9 mph - N/A   Clear
10:53 PM 35.6 °F 28.6 °F 30.2 °F 81% 29.80 in 10.0 mi SW 9.2 mph - N/A   Clear
11:12 PM 35.6 °F 29.2 °F 30.2 °F 81% 29.80 in 10.0 mi SW 8.1 mph - N/A   Clear
11:33 PM 35.6 °F 29.2 °F 30.2 °F 81% 29.79 in 10.0 mi SW 8.1 mph - N/A   Clear